Torna al catalogo

CZ-6A DEB

AttivoPO
NORAD 54288·DEBRIS·🇨🇳 China

Lanciato Nov 11, 2022 da Taiyuan Satellite Launch Center

Loading…

Prossimi Passaggi (prossime 24 ore)

TLE

AggiornatoSource: Space-Track

Epoca: Sep 13, 2026, 18:11 UTC

1 54288U 22151AF  26256.75778145  .00001973  00000-0  34474-3 0  9998
2 54288  98.6636 348.9926 0129934 311.9175  47.1003 14.63846303203540

Traccia CZ-6A DEB in tempo reale con AllMySat

Download on the App Store